星链-11369 (STARLINK-11369)

导读

STARLINK-11369是美国于北京时间2024年11月25日08:00发射的星链卫星,星链项目是美国太空探索技术公司SpaceX推进的低轨卫星互联网星座计划。该卫星入轨后将补充星链星座,为全球多地提供高速低延迟卫星互联网服务,进一步完善美国低轨卫星通信网络布局。

基本信息
目录编号:
62095
目录名称:
STARLINK-11369
国际标识:
2024-220H
轨道中心:
EARTH
卫星名称:
星链-11369
卫星全名:
星链-11369 (STARLINK-11369)
卫星状态:
在轨 (已飞行658 天)
发射日期:
2024-11-25 UTC
国别 :
美国 (US)
星等 :
--
该卫星已列入 空间交会检测服务 Space Conjunction Data Service (SCDS) ,当前飞行风险评估等级: 无高风险
轨道信息
数据来源 国际轨道数据
星历时间: 2026-09-13T23:13:17+0800
12小时前
查看轨道信息
半长轴: 6734.642km
偏心率: 0.0000675
轨道倾角: 43.000°
近地点辐角 288.140°
升交点赤经 350.057°
平近点角 71.939°
近地点: 356.05km
远地点: 356.96km
周期: 91.671分钟
每日圈数: 15.708368
详细信息
固有亮度:
5
最大亮度:
2.5
卫星平台:
Starlink V1.0
覆盖范围:
全球
运营商:
太空探索技术公司
运营商所在国:
美国
制造商(研发单位):
太空探索技术公司
制造商所在国:
美国
使用方式:
暂无
卫星简介
Starlink 计划是 SpaceX 推出的全球卫星互联网项目,通过发射低轨道卫星,为全球尤其是偏远地区提供高速、低延迟的互联网服务。自 2019 年起,Starlink 已部署数千颗卫星,旨在缩小全球数字鸿沟,推动互联网普及。该项目还为军事、航空等行业提供通信支持,带来广泛经济效益。
2D轨道图
3D轨道图
轨道高度分析图
轨道倾角分析图
轨道综合分析图
查看轨道综合分析图
交会数据列表
事件ID 空间交会对象 最接近时刻(TCA) 交会距离 交会风险概率(CRP) 交会风险指数(CRI) 操作
CDM_260916-150906-209506-319021
2026-09-16T
15:09:19+0000
0.842 km
远距离
2.855949E-5 中风险 0.64
CDM_260916-045406-177406-209521
2026-09-16T
04:54:02+0000
2.095 km
极远距离
2.504414E-6 低风险 0.43
CDM_260916-161904-090506-209521
OBJECT G (40905)
2026-09-16T
16:19:40+0000
2.342 km
极远距离
1.318936E-6 低风险 0.37
CDM_260916-125206-209506-319021
2026-09-16T
12:52:04+0000
2.952 km
极远距离
8.900295E-7 极低风险 0.34
与全量物体交会距离演化趋势 订阅飞行安全评估服务
与全量物体交会风险概率演化趋势 订阅飞行安全评估服务